WA2GTM Weather Reports


time (UTC)temp
F
wind
direction
speed
knots
gust
knots
rain 1hr
in
rain 24hr
in
rain mn
in
humidity
%
barometer
mb
20260507114557 42 242 1.7 4.3 0.00 0.00 0.00 64 1011.6
20260507114056 42 242 0.9 3.5 0.00 0.00 0.00 63 1011.7
20260507113555 41 242 1.7 4.3 0.00 0.00 0.00 63 1011.6
20260507113126 41 242 1.7 4.3 0.00 0.00 0.00 63 1011.5
20260507112555 41 244 2.6 4.3 0.00 0.00 0.00 63 1011.6
20260507112057 41 233 2.6 4.3 0.00 0.00 0.00 63 1011.6
20260507111557 41 229 2.6 7.0 0.00 0.00 0.00 62 1011.6
20260507111057 42 234 2.6 7.0 0.00 0.00 0.00 62 1011.6
20260507110557 42 235 3.5 7.0 0.00 0.00 0.00 61 1011.6
20260507110058 42 225 3.5 6.1 0.00 0.00 0.00 61 1011.7
20260507105557 42 220 1.7 3.5 0.00 0.00 0.00 61 1011.6
20260507105057 42 217 1.7 3.5 0.00 0.00 0.00 62 1011.6
20260507104607 41 216 1.7 4.3 0.00 0.00 0.00 62 1011.6
20260507104057 42 216 1.7 4.3 0.00 0.00 0.00 62 1011.5
20260507103557 42 216 1.7 4.3 0.00 0.00 0.00 62 1011.6
20260507103056 41 216 2.6 4.3 0.00 0.00 0.00 62 1011.6
20260507102556 42 216 1.7 4.3 0.00 0.00 0.00 61 1011.7
20260507102056 42 219 1.7 4.3 0.00 0.00 0.00 61 1011.6
20260507101557 42 217 1.7 3.5 0.00 0.00 0.00 60 1011.8
20260507101057 42 217 0.9 3.5 0.00 0.00 0.00 61 1011.9
20260507100556 42 217 1.7 4.3 0.00 0.00 0.00 60 1011.8
20260507100059 42 216 2.6 4.3 0.00 0.00 0.00 60 1011.8
20260507095556 42 218 2.6 3.5 0.00 0.00 0.00 60 1011.9
20260507095056 42 218 1.7 3.5 0.00 0.00 0.00 59 1012.0
20260507094605 42 217 1.7 2.6 0.00 0.00 0.00 59 1012.1
20260507094056 42 217 0.9 2.6 0.00 0.00 0.00 59 1012.2
20260507093556 42 217 0.0 2.6 0.00 0.00 0.00 59 1012.1
20260507093102 43 217 0.9 3.5 0.00 0.00 0.00 58 1012.1
20260507092557 43 217 1.7 4.3 0.00 0.00 0.00 57 1012.2
20260507092056 43 217 2.6 4.3 0.00 0.00 0.00 57 1012.3
20260507091556 43 217 1.7 3.5 0.00 0.00 0.00 57 1012.3
20260507091059 43 205 0.9 4.3 0.00 0.00 0.00 57 1012.4
20260507090601 43 205 1.7 4.3 0.00 0.00 0.00 57 1012.4
20260507090055 43 205 1.7 4.3 0.00 0.00 0.00 57 1012.7
20260507085557 43 195 1.7 4.3 0.00 0.00 0.00 56 1012.7
20260507085056 44 194 1.7 5.2 0.00 0.00 0.00 56 1012.8
20260507084559 44 192 2.6 5.2 0.00 0.00 0.00 56 1012.9
20260507084056 44 215 0.9 2.6 0.00 0.00 0.00 55 1013.0
20260507083559 44 216 0.0 3.5 0.00 0.00 0.00 55 1013.1
20260507083104 44 216 1.7 3.5 0.00 0.00 0.00 55 1013.2
20260507082559 44 216 0.9 3.5 0.00 0.00 0.00 55 1013.4
20260507082057 44 0 0.9 4.3 0.00 0.00 0.00 54 1013.4
20260507081557 44 216 1.7 4.3 0.00 0.00 0.00 54 1013.4
20260507081058 44 215 1.7 5.2 0.00 0.00 0.00 54 1013.3
20260507080556 44 215 1.7 5.2 0.00 0.00 0.00 54 1013.3
20260507080056 44 215 1.7 4.3 0.00 0.00 0.00 54 1013.2
20260507075556 43 203 0.9 3.5 0.00 0.00 0.00 55 1013.2
20260507075056 43 203 0.9 3.5 0.00 0.00 0.00 55 1013.3
20260507074559 43 203 0.9 3.5 0.00 0.00 0.00 55 1013.2
20260507074053 43 203 1.7 3.5 0.00 0.00 0.00 55 1013.4
20260507073556 43 208 0.9 3.5 0.00 0.00 0.00 55 1013.5
20260507073110 43 217 0.9 5.2 0.00 0.00 0.00 55 1013.6
20260507072556 43 217 1.7 5.2 0.00 0.00 0.00 56 1013.7
20260507072058 42 215 1.7 4.3 0.00 0.00 0.00 56 1013.8
20260507071557 42 212 0.9 4.3 0.00 0.00 0.00 56 1013.8
20260507071056 42 221 1.7 5.2 0.00 0.00 0.00 56 1013.9
20260507070556 42 223 2.6 6.1 0.00 0.00 0.00 56 1014.0
20260507070108 42 223 3.5 6.1 0.00 0.00 0.00 56 1014.1
20260507065555 42 223 3.5 6.1 0.00 0.00 0.00 56 1014.1
20260507065101 42 223 3.5 6.1 0.00 0.00 0.00 56 1014.3
20260507064602 42 224 3.5 6.1 0.00 0.00 0.00 56 1014.1
20260507064058 42 221 2.6 5.2 0.00 0.00 0.00 56 1014.2
20260507063557 41 219 2.6 5.2 0.00 0.00 0.00 56 1014.2
20260507063059 41 219 1.7 4.3 0.00 0.00 0.00 56 1014.2
20260507062556 41 219 1.7 5.2 0.00 0.00 0.00 56 1014.1
20260507062056 41 219 2.6 5.2 0.00 0.00 0.00 57 1014.2
20260507061555 41 219 1.7 5.2 0.00 0.00 0.00 57 1014.3
20260507061057 41 221 2.6 5.2 0.00 0.00 0.00 56 1014.3
20260507060600 41 223 2.6 4.3 0.00 0.00 0.00 56 1014.5
20260507060055 41 225 2.6 4.3 0.00 0.00 0.00 57 1014.5
20260507055556 41 229 2.6 4.3 0.00 0.00 0.00 58 1014.5
20260507055055 41 234 2.6 4.3 0.00 0.00 0.00 58 1014.7
20260507054555 41 243 1.7 3.5 0.00 0.00 0.00 59 1014.6
20260507054059 41 252 0.9 3.5 0.00 0.00 0.00 60 1014.4
20260507053556 41 316 0.9 2.6 0.00 0.00 0.00 61 1014.5
20260507053058 41 0 0.0 2.6 0.00 0.00 0.00 62 1014.3
20260507052558 41 316 0.0 2.6 0.00 0.00 0.00 62 1014.3
20260507052057 40 317 0.0 1.7 0.00 0.00 0.00 63 1014.5
20260507051607 41 0 0.0 1.7 0.00 0.00 0.00 63 1014.5
20260507051057 41 0 0.0 1.7 0.00 0.00 0.00 63 1014.7
20260507050556 41 317 0.0 0.9 0.00 0.00 0.00 64 1014.6
20260507050109 41 0 0.0 0.0 0.00 0.00 0.00 63 1014.7
20260507045556 41 0 0.0 0.9 0.00 0.00 0.00 63 1014.6
20260507045056 41 0 0.0 0.9 0.00 0.00 0.00 63 1014.7
20260507044600 41 0 0.0 0.9 0.00 0.00 0.00 63 1014.6
20260507044101 41 0 0.0 0.0 0.00 0.00 0.00 63 1014.7
20260507043556 41 0 0.0 0.0 0.00 0.00 0.00 63 1014.8
20260507043058 41 0 0.0 0.0 0.00 0.00 0.00 63 1015.0
20260507042555 41 0 0.0 0.9 0.00 0.00 0.00 62 1014.9
20260507042055 42 0 0.0 0.9 0.00 0.00 0.00 61 1015.0
20260507041607 42 0 0.0 1.7 0.00 0.00 0.00 60 1015.1
20260507041056 42 0 0.0 1.7 0.00 0.00 0.00 60 1015.1
20260507040600 42 317 0.0 1.7 0.00 0.00 0.00 58 1015.1
20260507040109 42 317 0.0 1.7 0.00 0.00 0.00 56 1015.2
20260507035601 42 0 0.0 0.9 0.00 0.00 0.00 56 1015.2
20260507035055 42 0 0.0 0.9 0.00 0.00 0.00 56 1015.1
20260507034602 43 0 0.0 1.7 0.00 0.00 0.00 56 1015.3
20260507034056 43 0 0.0 1.7 0.00 0.00 0.00 56 1015.2
20260507033556 43 317 0.0 1.7 0.00 0.00 0.00 55 1015.4
20260507033102 43 317 0.0 1.7 0.00 0.00 0.00 54 1015.4
20260507032557 43 0 0.0 1.7 0.00 0.00 0.00 53 1015.5
20260507032055 44 317 0.0 0.9 0.00 0.00 0.00 53 1015.5
20260507031602 44 0 0.0 0.0 0.00 0.00 0.00 52 1015.5
20260507031056 44 0 0.0 0.9 0.00 0.00 0.00 51 1015.5
20260507030556 45 0 0.0 0.9 0.00 0.00 0.00 50 1015.6
20260507030058 45 0 0.0 0.0 0.00 0.00 0.00 50 1015.5
20260507025558 45 0 0.0 0.0 0.00 0.00 0.00 49 1015.5
20260507025056 46 0 0.0 0.9 0.00 0.00 0.00 50 1015.4
20260507024603 46 0 0.0 0.9 0.00 0.00 0.00 51 1015.5
20260507024104 46 0 0.0 0.9 0.00 0.00 0.00 49 1015.5
20260507023557 47 0 0.0 0.9 0.00 0.00 0.00 48 1015.6
20260507023056 47 0 0.0 0.9 0.00 0.00 0.00 47 1015.4
20260507022556 48 0 0.0 0.9 0.00 0.00 0.00 48 1015.3
20260507022059 48 0 0.0 0.9 0.00 0.00 0.00 47 1015.4
20260507021605 48 0 0.0 0.9 0.00 0.00 0.00 45 1015.4
20260507021055 49 0 0.0 0.0 0.00 0.00 0.00 45 1015.5
20260507020556 49 0 0.0 0.0 0.00 0.00 0.00 44 1015.5
20260507020059 50 0 0.0 0.0 0.00 0.00 0.00 43 1015.4
20260507015556 50 0 0.0 0.0 0.00 0.00 0.00 41 1015.5
20260507015055 51 0 0.0 0.0 0.00 0.00 0.00 40 1015.4
20260507014600 51 0 0.0 0.0 0.00 0.00 0.00 38 1015.3
20260507014055 51 0 0.0 0.0 0.00 0.00 0.00 37 1015.4
20260507013556 52 0 0.0 0.0 0.00 0.00 0.00 38 1015.4
20260507013057 52 0 0.0 0.0 0.00 0.00 0.00 37 1015.3
20260507012559 53 0 0.0 0.9 0.00 0.00 0.00 35 1015.2
20260507012056 53 0 0.0 1.7 0.00 0.00 0.00 35 1015.4
20260507011604 53 317 0.0 2.6 0.00 0.00 0.00 35 1015.5
20260507011055 54 317 0.9 2.6 0.00 0.00 0.00 34 1015.6
20260507010557 54 317 0.9 2.6 0.00 0.00 0.00 33 1015.5
20260507005556 55 317 0.0 3.5 0.00 0.00 0.00 32 1015.5
20260507005055 55 317 0.9 5.2 0.00 0.00 0.00 32 1015.5
20260507004557 55 317 0.9 5.2 0.00 0.00 0.00 32 1015.4
20260507004057 55 316 1.7 5.2 0.00 0.00 0.00 31 1015.4
20260507003556 55 321 1.7 8.7 0.00 0.00 0.00 31 1015.5
20260507003058 55 319 1.7 10.4 0.00 0.00 0.00 31 1015.5
20260507002555 55 326 4.3 10.4 0.00 0.00 0.00 30 1015.7
20260507002056 56 342 4.3 9.6 0.00 0.00 0.00 30 1015.8
20260507001605 56 9 2.6 8.7 0.00 0.00 0.00 30 1015.7
20260507001057 56 351 2.6 9.6 0.00 0.00 0.00 30 1015.8
20260507000559 56 336 3.5 9.6 0.00 0.00 0.00 30 1015.9
20260507000059 56 332 4.3 8.7 0.00 0.00 0.00 30 1016.0
20260506235557 56 5 2.6 7.8 0.00 0.00 0.00 31 1016.0
20260506235056 56 324 3.5 10.4 0.00 0.00 0.00 30 1015.9
20260506234624 56 342 4.3 10.4 0.00 0.00 0.00 30 1015.8
20260506234100 56 5 3.5 10.4 0.00 0.00 0.00 29 1015.9
20260506233556 55 305 3.5 12.2 0.00 0.00 0.00 31 1015.9
20260506233100 55 315 5.2 12.2 0.00 0.00 0.00 30 1016.0
20260506232558 55 322 6.1 12.2 0.00 0.00 0.00 30 1015.9
20260506232059 55 296 2.6 7.0 0.00 0.00 0.00 31 1016.0
20260506231557 55 344 1.7 7.0 0.00 0.00 0.00 31 1016.1
20260506231059 55 21 1.7 9.6 0.00 0.00 0.00 31 1016.3
20260506230558 55 336 3.5 9.6 0.00 0.00 0.00 30 1016.3
20260506230059 56 355 2.6 8.7 0.00 0.00 0.00 31 1016.3
20260506225557 55 39 4.3 9.6 0.00 0.00 0.00 31 1016.3
20260506225059 55 360 4.3 9.6 0.00 0.00 0.00 31 1016.3
20260506224558 55 42 3.5 8.7 0.00 0.00 0.00 32 1016.3
20260506224055 55 5 3.5 11.3 0.00 0.00 0.00 32 1016.3
20260506223557 55 324 6.1 12.2 0.00 0.00 0.00 31 1016.4
20260506223100 55 338 4.3 15.6 0.00 0.00 0.00 31 1016.4
20260506222556 55 330 5.2 15.6 0.00 0.00 0.00 30 1016.4
20260506222056 55 331 6.1 15.6 0.00 0.00 0.00 31 1016.4
20260506221557 55 333 4.3 10.4 0.00 0.00 0.00 31 1016.3
20260506221055 55 281 3.5 10.4 0.00 0.00 0.00 32 1016.3
20260506220558 55 327 4.3 10.4 0.00 0.00 0.00 31 1016.5
20260506220058 56 350 3.5 9.6 0.00 0.00 0.00 31 1016.5
20260506215556 56 302 3.5 20.9 0.00 0.00 0.00 31 1016.5
20260506215058 55 341 3.5 20.9 0.00 0.00 0.00 32 1016.6
20260506214555 56 295 7.8 20.9 0.00 0.00 0.00 31 1016.6
20260506214056 56 337 2.6 12.2 0.00 0.00 0.00 31 1016.6
20260506213555 56 34 4.3 12.2 0.00 0.00 0.00 31 1016.5
20260506213101 56 331 5.2 13.0 0.00 0.00 0.00 31 1016.5
20260506212556 55 315 6.1 13.0 0.00 0.00 0.00 32 1016.5
20260506212056 55 313 4.3 14.8 0.00 0.00 0.00 31 1016.5
20260506211601 55 325 6.1 14.8 0.00 0.00 0.00 32 1016.6
20260506211056 55 309 5.2 13.9 0.00 0.00 0.00 31 1016.6
20260506210556 56 298 6.1 11.3 0.00 0.00 0.00 31 1016.6
20260506210057 56 344 4.3 16.5 0.00 0.00 0.00 32 1016.7
20260506205556 56 336 3.5 16.5 0.00 0.00 0.00 32 1017.0
20260506205055 56 306 8.7 16.5 0.00 0.00 0.00 33 1017.0
20260506204602 56 257 3.5 13.9 0.00 0.00 0.00 32 1017.0
20260506204055 55 308 5.2 13.9 0.00 0.00 0.00 32 1017.2
20260506203556 56 329 6.1 13.0 0.00 0.00 0.00 33 1017.2
20260506203103 56 13 3.5 13.0 0.00 0.00 0.00 31 1017.1
20260506202558 56 30 6.1 15.6 0.00 0.00 0.00 32 1017.3
20260506202057 56 346 8.7 15.6 0.00 0.00 0.00 31 1017.2
20260506201600 55 307 4.3 13.9 0.00 0.00 0.00 33 1017.1
20260506201054 55 320 5.2 12.2 0.00 0.00 0.00 33 1017.2
20260506200558 55 14 3.5 14.8 0.00 0.00 0.00 33 1017.2
20260506200111 54 330 3.5 14.8 0.00 0.00 0.00 32 1017.3
20260506195600 55 321 7.0 16.5 0.00 0.00 0.00 33 1017.5
20260506195056 55 360 8.7 16.5 0.00 0.00 0.00 33 1017.6
20260506194616 55 298 6.1 15.6 0.00 0.00 0.00 34 1017.5
20260506194056 55 315 6.1 13.0 0.00 0.00 0.00 33 1017.4
20260506193557 55 323 6.1 13.0 0.00 0.00 0.00 33 1017.4
20260506193057 55 325 4.3 12.2 0.00 0.00 0.00 33 1017.4
20260506192555 55 296 4.3 12.2 0.00 0.00 0.00 34 1017.4
20260506192100 55 304 7.0 13.9 0.00 0.00 0.00 34 1017.5
20260506191554 54 321 7.0 13.9 0.00 0.00 0.00 35 1017.5
20260506191057 54 320 6.1 13.0 0.00 0.00 0.00 34 1017.6
20260506190555 54 284 6.1 13.9 0.00 0.00 0.00 34 1017.3
20260506190101 54 249 5.2 13.9 0.00 0.00 0.00 36 1017.5
20260506185558 54 298 6.1 14.8 0.00 0.00 0.00 34 1017.5
20260506185058 53 303 6.1 14.8 0.00 0.00 0.00 36 1017.4
20260506184610 53 29 3.5 13.9 0.00 0.00 0.00 35 1017.4
20260506184055 53 18 6.1 13.0 0.00 0.00 0.00 34 1017.3
20260506183601 54 269 7.8 13.0 0.00 0.00 0.00 34 1017.6
20260506183104 53 303 4.3 20.0 0.00 0.00 0.00 36 1017.6
20260506182557 53 5 6.1 20.0 0.00 0.00 0.00 35 1017.8
20260506182100 52 339 9.6 20.0 0.00 0.00 0.00 35 1017.7
20260506181601 52 310 7.8 14.8 0.00 0.00 0.00 35 1017.8
20260506181057 53 9 7.0 14.8 0.00 0.00 0.00 35 1017.9
20260506180558 52 323 4.3 13.9 0.00 0.00 0.00 37 1017.7
20260506180056 53 348 7.0 13.9 0.00 0.00 0.00 35 1018.0
20260506175555 53 308 7.0 14.8 0.00 0.00 0.00 36 1018.0
20260506175055 52 5 4.3 14.8 0.00 0.00 0.00 37 1018.0
20260506174602 52 317 8.7 14.8 0.00 0.00 0.00 36 1018.2
20260506174055 52 323 7.0 13.0 0.00 0.00 0.00 37 1018.1
20260506173558 52 360 7.0 12.2 0.00 0.00 0.00 37 1018.3
20260506173112 52 323 5.2 10.4 0.00 0.00 0.00 36 1018.2
20260506172554 51 298 5.2 15.6 0.00 0.00 0.00 37 1018.1
20260506172056 50 315 8.7 15.6 0.00 0.00 0.00 37 1018.2
20260506171600 51 308 5.2 13.0 0.00 0.00 0.00 38 1018.3
20260506171056 50 344 4.3 13.0 0.00 0.00 0.00 39 1018.2
20260506170558 50 303 6.1 13.0 0.00 0.00 0.00 38 1018.3
20260506170057 50 277 6.1 11.3 0.00 0.00 0.00 38 1018.2
20260506165555 50 271 6.1 11.3 0.00 0.00 0.00 39 1018.2
20260506165055 50 346 6.1 11.3 0.00 0.00 0.00 39 1018.2
20260506164557 50 311 5.2 11.3 0.00 0.00 0.00 39 1018.1
20260506164055 50 355 5.2 12.2 0.00 0.00 0.00 39 1018.2
20260506163555 50 25 4.3 12.2 0.00 0.00 0.00 41 1018.0
20260506163055 50 9 5.2 10.4 0.00 0.00 0.00 40 1018.2
20260506162555 49 10 4.3 12.2 0.00 0.00 0.00 39 1018.1
20260506162101 50 23 5.2 12.2 0.00 0.00 0.00 38 1018.1
20260506161604 50 313 4.3 10.4 0.00 0.00 0.00 38 1018.1
20260506161055 50 306 2.6 11.3 0.00 0.00 0.00 41 1018.0
20260506160555 50 300 3.5 11.3 0.00 0.00 0.00 40 1018.0
20260506160057 50 308 5.2 11.3 0.00 0.00 0.00 40 1018.0
20260506155555 50 36 6.1 13.9 0.00 0.00 0.00 39 1017.9
20260506155057 50 18 4.3 13.9 0.00 0.00 0.00 40 1018.2
20260506154559 49 311 7.0 13.9 0.00 0.00 0.00 41 1018.0
20260506154058 49 302 7.0 13.0 0.00 0.00 0.00 42 1018.2
20260506153558 49 290 5.2 10.4 0.00 0.00 0.00 42 1018.1
20260506153058 49 327 4.3 10.4 0.00 0.00 0.00 41 1018.0
20260506152557 49 344 2.6 10.4 0.00 0.00 0.00 43 1018.0
20260506152059 49 41 5.2 10.4 0.00 0.00 0.00 42 1018.0
20260506151607 49 261 2.6 10.4 0.00 0.00 0.00 43 1018.0
20260506151057 49 32 2.6 10.4 0.00 0.00 0.00 45 1018.0
20260506150557 48 15 3.5 7.8 0.00 0.00 0.00 45 1017.8
20260506150106 48 296 4.3 7.8 0.00 0.00 0.00 44 1017.9
20260506145557 48 295 3.5 7.8 0.00 0.00 0.00 45 1017.9
20260506145058 48 290 3.5 11.3 0.00 0.00 0.00 46 1018.0
20260506144612 48 5 4.3 11.3 0.00 0.00 0.00 46 1018.0
20260506144057 47 319 4.3 7.0 0.00 0.00 0.00 46 1017.8
20260506143555 47 285 1.7 6.1 0.00 0.00 0.00 48 1017.9
20260506143105 46 294 0.9 6.1 0.00 0.00 0.00 48 1017.8
20260506142557 47 273 2.6 6.1 0.00 0.00 0.00 47 1018.0
20260506142056 47 329 0.9 5.2 0.00 0.00 0.00 48 1017.7
20260506141558 46 331 1.7 5.2 0.00 0.00 0.00 47 1017.8
20260506141057 46 311 2.6 7.0 0.00 0.00 0.00 48 1017.7
20260506140558 46 320 1.7 7.0 0.00 0.00 0.00 49 1017.7
20260506140106 46 13 1.7 7.0 0.00 0.00 0.00 49 1017.7
20260506135554 45 324 2.6 7.0 0.00 0.00 0.00 51 1017.6
20260506135057 45 319 2.6 5.2 0.00 0.00 0.00 50 1017.4
20260506134559 45 25 0.0 3.5 0.00 0.00 0.00 53 1017.2
20260506134054 45 25 1.7 7.0 0.00 0.00 0.00 51 1017.5
20260506133557 44 17 0.9 7.0 0.00 0.00 0.00 52 1017.4
20260506133057 44 22 1.7 7.0 0.00 0.00 0.00 51 1017.5
20260506132555 44 342 0.9 7.0 0.00 0.00 0.00 54 1017.5
20260506132056 44 21 1.7 4.3 0.00 0.00 0.00 54 1017.4
20260506131557 43 21 0.9 4.3 0.00 0.00 0.00 57 1017.3
20260506131058 43 11 1.7 4.3 0.00 0.00 0.00 58 1017.3
20260506130557 42 11 1.7 4.3 0.00 0.00 0.00 59 1017.4
20260506130133 41 10 1.7 4.3 0.00 0.00 0.00 60 1017.2
20260506125559 41 44 1.7 5.2 0.00 0.00 0.00 61 1017.3
20260506125057 40 44 1.7 5.2 0.00 0.00 0.00 61 1017.2
20260506124557 40 51 1.7 5.2 0.00 0.00 0.00 62 1017.3
20260506124057 39 15 0.9 4.3 0.00 0.00 0.00 63 1017.2
20260506123558 39 19 1.7 4.3 0.00 0.00 0.00 64 1017.1
20260506123055 39 355 0.9 4.3 0.00 0.00 0.00 65 1017.1
20260506122558 38 355 0.9 3.5 0.00 0.00 0.00 65 1017.0
20260506122058 38 5 0.9 2.6 0.00 0.00 0.00 65 1016.9
20260506121558 38 5 0.9 2.6 0.00 0.00 0.00 65 1016.8
20260506121055 38 0 0.9 2.6 0.00 0.00 0.00 66 1016.7
20260506120556 37 5 0.0 1.7 0.00 0.00 0.00 66 1016.7
20260506120100 37 0 0.0 1.7 0.00 0.00 0.00 66 1016.6
20260506115557 37 0 0.0 1.7 0.00 0.00 0.00 66 1016.5
20260506115057 37 0 0.0 1.7 0.00 0.00 0.00 65 1016.4